COSMOS 2251 DEB, 34796

Orbit data source: Space-Track

COSMOS 2251 DEB, 34796 is space debris in LEO originally from a launch on Wed, 16 Jun 1993 UTC launched from the Plesetsk Missile And Space Complex (PKMTR). The debris from Iridium 33, an American commercial communications satellite, has been tracked extensively since its accidental collision with the defunct Russian satellite Cosmos 2251 in 2009. This event, occurring at high speed in low Earth orbit (LEO), generated thousands of pieces of space debris, significantly increasing the risk of further collisions. The Iridium 33 debris cloud has impacted space traffic management and orbital debris mitigation strategies, making it a subject of ongoing study in space situational awareness.

Loading next visibility...
Identifier
34796, 1993-036AAZ
Orbit
LEO
Country
Flag of CISCIS
Related business
Manufacturer
Unknown
Mission
Spacecraft
Bus & Motor
Unknown
Mass
Unknown
Launch date (UTC)
1993-06-16 (33 years ago)
Launch vehicle
Unknown
Launch site
Plesetsk Missile And Space Complex (PKMTR)
Object type
Payload
Rocket body
Debris
Shape & HBR
Unknown shape, 0.1 m
Radar Cross Section
Small (<0.1 m²)

Expand to show TLE details & history
Last TLE update: 11 hours ago

TLE from 11 hours ago
0 COSMOS 2251 DEB
1 34796U 93036AAZ 26257.44666780  .00001527  00000-0  37916-3 0  9997
2 34796  74.0287  58.8410 0097888  93.3224 298.6292 14.49831767920221
Epoch: 2026-09-14T10:43Z
TLE epoch observation values (Epoch: 2026-09-14T10:43:12.097Z)
Latitude
29.70094°
Longitude
-86.04149°
Altitude
696.804 km
Speed
7.528 km/s
True Right ascension
04h 32m 44s
True Declination
29° 33' 07"
Sunlit
Object was in daylight at epoch
Visualization orbit readout
Latitude
Unknown
Longitude
Unknown
Altitude
Unknown
Speed
Unknown
Apparent Right ascension
Unknown
Apparent Declination
Unknown
Sunlit
N/A
Visualization observer readout
Local Sidereal Time
14:41:50
Azimuth
Unknown
Elevation
Unknown
Doppler factor
Unknown
Orbital elements
Apogee altitude
793.327 km
Perigee altitude
654.288 km
Semi-major axis
7,101.944 km
Eccentricity
0.00979
Inclination
74.0287°
RAAN
58.841°
Arg. of periapsis
93.3224°
True anomaly
297.63887°
Mean anomaly
298.6292°
Eccentric anomaly
298.13461°
Mean motion
3.62641 °/min
Orbital period
99.27 mins
BSTAR
0.00037916
Loading maneuver chart data...
Computing Atmospheric mass density...

Documentation

Showing up to 5 results
|